TimeEDT,TemperatureF,Dew PointF,Humidity,Sea Level PressureIn,VisibilityMPH,Wind Direction,Wind SpeedMPH,Gust SpeedMPH,PrecipitationIn,Events,Conditions,WindDirDegrees,DateUTC
12:14 AM,44.6,39.6,82,30.36,10.0,Calm,Calm,-,N/A,,Clear,0,2013-05-25 04:14:00
12:34 AM,44.2,39.4,83,30.36,10.0,Calm,Calm,-,N/A,,Clear,0,2013-05-25 04:34:00
12:55 AM,44.1,39.2,83,30.36,10.0,NW,4.6,-,N/A,,Clear,310,2013-05-25 04:55:00
1:14 AM,42.8,38.5,85,30.35,10.0,NNW,4.6,-,N/A,,Clear,340,2013-05-25 05:14:00
1:34 AM,42.4,38.7,86,30.35,10.0,Calm,Calm,-,N/A,,Clear,0,2013-05-25 05:34:00
1:55 AM,40.5,37.8,90,30.36,10.0,NW,3.5,-,N/A,,Clear,310,2013-05-25 05:55:00
2:14 AM,42.1,38.8,88,30.36,10.0,Calm,Calm,-,N/A,,Clear,0,2013-05-25 06:14:00
2:34 AM,41.9,38.8,89,30.35,10.0,WNW,3.5,-,N/A,,Clear,300,2013-05-25 06:34:00
2:54 AM,41.9,38.7,88,30.35,10.0,Calm,Calm,-,N/A,,Clear,0,2013-05-25 06:54:00
3:14 AM,40.3,38.1,92,30.35,10.0,Calm,Calm,-,N/A,,Clear,0,2013-05-25 07:14:00
3:35 AM,38.5,37.4,96,30.34,10.0,Calm,Calm,-,N/A,,Clear,0,2013-05-25 07:35:00
3:54 AM,37.2,36.0,95,30.34,10.0,Calm,Calm,-,N/A,,Clear,0,2013-05-25 07:54:00
4:14 AM,37.0,36.3,97,30.34,7.0,Calm,Calm,-,N/A,,Clear,0,2013-05-25 08:14:00
4:35 AM,38.5,38.1,99,30.33,10.0,Calm,Calm,-,N/A,,Clear,0,2013-05-25 08:35:00
4:54 AM,39.2,38.5,97,30.33,10.0,Calm,Calm,-,N/A,,Clear,0,2013-05-25 08:54:00
5:14 AM,39.2,38.3,97,30.33,10.0,Calm,Calm,-,N/A,,Clear,0,2013-05-25 09:14:00
5:35 AM,39.4,38.5,97,30.33,10.0,Calm,Calm,-,N/A,,Clear,0,2013-05-25 09:35:00
5:54 AM,40.1,39.0,96,30.33,10.0,Calm,Calm,-,N/A,,Clear,0,2013-05-25 09:54:00
6:15 AM,38.8,37.4,95,30.34,5.0,Calm,Calm,-,N/A,,Clear,0,2013-05-25 10:15:00
6:35 AM,38.1,37.4,97,30.35,5.0,Calm,Calm,-,N/A,,Clear,0,2013-05-25 10:35:00
6:54 AM,38.7,38.3,99,30.35,7.0,Calm,Calm,-,N/A,,Clear,0,2013-05-25 10:54:00
7:15 AM,43.0,42.1,97,30.36,10.0,Calm,Calm,-,N/A,,Clear,0,2013-05-25 11:15:00
7:34 AM,45.1,43.2,93,30.37,10.0,Calm,Calm,-,N/A,,Clear,0,2013-05-25 11:34:00
7:54 AM,45.7,42.8,90,30.37,10.0,Calm,Calm,-,N/A,,Clear,0,2013-05-25 11:54:00
8:15 AM,46.2,43.2,89,30.38,10.0,Calm,Calm,-,N/A,,Clear,0,2013-05-25 12:15:00
8:34 AM,48.0,43.3,84,30.38,10.0,Calm,Calm,-,N/A,,Clear,0,2013-05-25 12:34:00
8:54 AM,49.5,44.2,82,30.38,10.0,Calm,Calm,-,N/A,,Clear,0,2013-05-25 12:54:00
9:15 AM,51.4,45.1,79,30.38,10.0,Calm,Calm,-,N/A,,Clear,0,2013-05-25 13:15:00
9:34 AM,52.9,45.3,75,30.38,10.0,Calm,Calm,-,N/A,,Clear,0,2013-05-25 13:34:00
9:54 AM,53.8,45.3,73,30.38,10.0,Calm,Calm,-,N/A,,Clear,0,2013-05-25 13:54:00
10:15 AM,55.0,45.7,71,30.39,10.0,Calm,Calm,-,N/A,,Clear,0,2013-05-25 14:15:00
10:34 AM,56.5,43.7,62,30.38,10.0,Calm,Calm,-,N/A,,Clear,0,2013-05-25 14:34:00
10:54 AM,57.9,42.6,57,30.38,10.0,NNE,3.5,-,N/A,,Clear,20,2013-05-25 14:54:00
11:15 AM,58.3,40.1,51,30.38,10.0,ENE,4.6,-,N/A,,Clear,70,2013-05-25 15:15:00
11:34 AM,58.3,40.5,52,30.38,10.0,Calm,Calm,-,N/A,,Clear,0,2013-05-25 15:34:00
11:55 AM,60.1,37.6,43,30.38,10.0,Calm,Calm,-,N/A,,Clear,0,2013-05-25 15:55:00
12:14 PM,59.2,38.7,47,30.37,10.0,North,5.8,-,N/A,,Clear,360,2013-05-25 16:14:00
12:34 PM,60.4,43.2,53,30.37,10.0,NNE,4.6,-,N/A,,Clear,30,2013-05-25 16:34:00
12:55 PM,61.7,44.4,53,30.36,10.0,NNE,6.9,-,N/A,,Clear,30,2013-05-25 16:55:00
1:14 PM,61.3,43.0,51,30.37,10.0,East,4.6,-,N/A,,Clear,100,2013-05-25 17:14:00
1:35 PM,61.5,41.2,47,30.36,10.0,Calm,Calm,-,N/A,,Clear,0,2013-05-25 17:35:00
1:54 PM,62.8,42.6,48,30.36,10.0,NNE,5.8,-,N/A,,Clear,20,2013-05-25 17:54:00
2:14 PM,63.0,40.6,44,30.35,10.0,NW,4.6,-,N/A,,Clear,310,2013-05-25 18:14:00
2:35 PM,63.0,41.2,45,30.34,10.0,Calm,Calm,-,N/A,,Clear,0,2013-05-25 18:35:00
2:54 PM,63.0,41.7,46,30.33,10.0,East,5.8,-,N/A,,Clear,80,2013-05-25 18:54:00
3:14 PM,63.7,41.9,45,30.32,10.0,NE,3.5,-,N/A,,Clear,50,2013-05-25 19:14:00
3:35 PM,64.6,41.5,43,30.32,10.0,East,3.5,-,N/A,,Clear,100,2013-05-25 19:35:00
3:54 PM,64.4,41.5,43,30.32,10.0,Calm,Calm,-,N/A,,Clear,0,2013-05-25 19:54:00
4:14 PM,63.5,41.2,44,30.30,10.0,NNW,3.5,-,N/A,,Clear,330,2013-05-25 20:14:00
4:35 PM,64.2,42.1,44,30.30,10.0,Calm,Calm,-,N/A,,Scattered Clouds,0,2013-05-25 20:35:00
4:54 PM,64.2,42.6,45,30.29,10.0,NNE,5.8,-,N/A,,Clear,20,2013-05-25 20:54:00
5:14 PM,64.0,41.0,43,30.29,10.0,Calm,Calm,-,N/A,,Clear,0,2013-05-25 21:14:00
5:35 PM,64.0,41.9,44,30.28,10.0,East,6.9,-,N/A,,Clear,80,2013-05-25 21:35:00
5:54 PM,63.0,41.0,45,30.29,10.0,East,3.5,-,N/A,,Clear,100,2013-05-25 21:54:00
6:15 PM,63.1,40.5,43,30.28,10.0,Calm,Calm,-,N/A,,Clear,0,2013-05-25 22:15:00
6:34 PM,62.6,40.3,44,30.28,10.0,ENE,5.8,-,N/A,,Clear,60,2013-05-25 22:34:00
6:54 PM,63.0,40.8,44,30.28,10.0,Calm,Calm,-,N/A,,Clear,0,2013-05-25 22:54:00
7:15 PM,63.5,41.4,44,30.28,10.0,ENE,6.9,-,N/A,,Clear,60,2013-05-25 23:15:00
7:34 PM,62.6,40.6,45,30.27,10.0,North,3.5,-,N/A,,Clear,360,2013-05-25 23:34:00
7:54 PM,61.9,41.2,47,30.28,10.0,NE,4.6,-,N/A,,Clear,40,2013-05-25 23:54:00
8:15 PM,61.0,40.1,46,30.28,10.0,North,3.5,-,N/A,,Clear,10,2013-05-26 00:15:00
8:34 PM,59.9,40.3,48,30.28,10.0,North,3.5,-,N/A,,Clear,360,2013-05-26 00:34:00
8:54 PM,59.0,39.7,49,30.27,10.0,North,3.5,-,N/A,,Clear,360,2013-05-26 00:54:00
9:15 PM,58.3,41.0,53,30.28,10.0,Calm,Calm,-,N/A,,Clear,0,2013-05-26 01:15:00
9:34 PM,57.7,40.6,53,30.28,10.0,NE,5.8,-,N/A,,Clear,40,2013-05-26 01:34:00
9:54 PM,56.5,40.5,55,30.28,10.0,NE,3.5,-,N/A,,Clear,50,2013-05-26 01:54:00
10:14 PM,55.8,40.3,56,30.29,10.0,Calm,Calm,-,N/A,,Clear,0,2013-05-26 02:14:00
10:34 PM,54.1,41.7,63,30.30,10.0,Calm,Calm,-,N/A,,Clear,0,2013-05-26 02:34:00
10:55 PM,52.9,42.1,67,30.30,10.0,Calm,Calm,-,N/A,,Clear,0,2013-05-26 02:55:00
11:14 PM,52.3,42.3,69,30.30,10.0,Calm,Calm,-,N/A,,Clear,0,2013-05-26 03:14:00
11:34 PM,50.7,43.3,76,30.31,10.0,Calm,Calm,-,N/A,,Clear,0,2013-05-26 03:34:00
11:54 PM,50.4,41.9,73,30.31,10.0,Calm,Calm,-,N/A,,Clear,0,2013-05-26 03:54:00